Albuquerque, NM

3:46 AM MDT on September 26, 2017 (GMT -0600)
Albuquerque International Sunport

Weather History for KABQ - March, 2013

Change the Weather History Date:

Thursday, March 7, 2013

  Actual Average Record
Temperature  
Mean Temperature 54 °F 46 °F  
Max Temperature 69 °F 58 °F 79 °F (1972)
Min Temperature 38 °F 34 °F 10 °F (1971)
Degree Days  
Heating Degree Days 11 19  
Month to date heating degree days 95 136  
Since 1 July heating degree days 3293 3439  
Cooling Degree Days 0 0  
Month to date cooling degree days 0 0  
Year to date cooling degree days 0 0  
Growing Degree Days 3 (Base 50)    
Moisture  
Dew Point 17 °F    
Average Humidity 28    
Maximum Humidity 44    
Minimum Humidity 12    
Precipitation  
Precipitation 0.00 in 0.02 in 0.35 in (1942)
Month to date precipitation 0.00 0.12  
Year to date precipitation 0.35 0.98  
Snow  
Snow 0.00 in - - ()
Month to date snowfall 0.0  
Since 1 July snowfall 3.5  
Snow Depth 0.00 in    
Sea Level Pressure  
Sea Level Pressure 29.90 in    
Wind  
Wind Speed 7 mph (SSE)    
Max Wind Speed 18 mph    
Max Gust Speed 23 mph    
Visibility 10 miles    
Events      
T = Trace of Precipitation, MM = Missing Value Source: NWS Daily Summary

Daily Weather History Graph

Daily Weather History Graph

Search for Another Location

Airport or City:

Trip Planner

Search our weather history database for the weather conditions in past years. The results will help you decide how hot, cold, wet, or windy it might be!

Date:

Astronomy

Mar. 07, 2013 Rise Set
Actual Time 6:27 AM MST 6:07 PM MST
Civil Twilight 6:02 AM MST 6:32 PM MST
Nautical Twilight 5:33 AM MST 7:02 PM MST
Astronomical Twilight 5:03 AM MST 7:31 PM MST
Moon 3:21 AM MST (3/7) 2:06 PM MST (3/7)
Length of Visible Light 12h 30m
Length of Day
11h 40m
Waning Crescent, 19% of the Moon is Illuminated
Mar 7
Waning Crescent
Mar 11
New
Mar 19
First Quarter
Mar 27
Full
Apr 2
Last Quarter

Hourly Weather History & Observations

Time (MST) Temp. Windchill Dew Point Humidity Pressure Visibility Wind Dir Wind Speed Gust Speed Precip Events Conditions
12:52 AM 44.1 °F 41.5 °F 19.9 °F 38% 29.93 in 10.0 mi SE 4.6 mph - N/A   Clear
1:52 AM 48.0 °F - 19.0 °F 32% 29.91 in 10.0 mi Calm Calm - N/A   Clear
2:52 AM 39.0 °F 34.0 °F 18.0 °F 43% 29.93 in 10.0 mi SSE 6.9 mph - N/A   Clear
3:52 AM 42.1 °F 40.2 °F 18.0 °F 38% 29.92 in 10.0 mi WNW 3.5 mph - N/A   Clear
4:52 AM 41.0 °F - 19.9 °F 43% 29.93 in 10.0 mi Calm Calm - N/A   Clear
5:52 AM 39.2 °F 35.9 °F 19.4 °F 45% 30.05 in 10.0 mi NNE 4.6 mph - N/A   Clear
6:52 AM 39.0 °F 34.0 °F 18.0 °F 43% 29.98 in 10.0 mi NNE 6.9 mph - N/A   Clear
7:52 AM 42.8 °F - 17.6 °F 36% 30.09 in 10.0 mi Calm Calm - N/A   Clear
8:52 AM 48.0 °F - 18.0 °F 30% 29.99 in 10.0 mi NNW 4.6 mph - N/A   Clear
9:52 AM 55.9 °F - 17.1 °F 22% 29.96 in 10.0 mi Calm Calm - N/A   Clear
10:52 AM 60.1 °F - 16.0 °F 18% 29.97 in 10.0 mi Calm Calm - N/A   Partly Cloudy
11:52 AM 64.0 °F - 17.1 °F 16% 29.94 in 10.0 mi Variable 4.6 mph - N/A   Partly Cloudy
12:52 PM 64.9 °F - 16.0 °F 15% 29.90 in 10.0 mi South 6.9 mph - N/A   Partly Cloudy
1:52 PM 66.0 °F - 16.0 °F 15% 29.85 in 10.0 mi South 11.5 mph 17.3 mph N/A   Scattered Clouds
2:52 PM 68.0 °F - 15.1 °F 13% 29.84 in 10.0 mi South 10.4 mph - N/A   Partly Cloudy
3:52 PM 69.1 °F - 16.0 °F 13% 29.81 in 10.0 mi South 9.2 mph 18.4 mph N/A   Scattered Clouds
4:52 PM 68.0 °F - 14.0 °F 12% 29.80 in 10.0 mi South 13.8 mph 18.4 mph N/A   Scattered Clouds
5:52 PM 66.9 °F - 12.9 °F 12% 29.80 in 10.0 mi South 8.1 mph - N/A   Scattered Clouds
6:52 PM 60.1 °F - 12.9 °F 16% 29.83 in 10.0 mi SSE 6.9 mph - N/A   Scattered Clouds
7:52 PM 59.0 °F - 14.0 °F 17% 29.83 in 10.0 mi SE 12.7 mph - N/A   Scattered Clouds
8:52 PM 59.0 °F - 15.1 °F 18% 29.82 in 10.0 mi South 13.8 mph - N/A   Scattered Clouds
9:52 PM 57.0 °F - 16.0 °F 20% 29.82 in 10.0 mi South 18.4 mph - N/A   Partly Cloudy
10:52 PM 53.6 °F - 15.8 °F 22% 29.99 in 10.0 mi South 10.4 mph - N/A   Partly Cloudy
11:52 PM 50.0 °F - 15.1 °F 25% 29.87 in 10.0 mi ESE 5.8 mph - N/A   Scattered Clouds